LaGrange, GA

1:08 PM EST on December 09, 2016 (GMT -0500)
Lagrange-Callaway

Weather History for KLGC - January, 2013

Change the Weather History Date:

Friday, January 18, 2013

  Actual Average Record
Temperature  
Mean Temperature 42 °F -  
Max Temperature 55 °F 55 °F 75 °F (1949)
Min Temperature 30 °F 33 °F 12 °F (2003)
Degree Days  
Heating Degree Days 22    
Moisture  
Dew Point 30 °F    
Average Humidity 68    
Maximum Humidity 98    
Minimum Humidity 31    
Precipitation  
Precipitation 0.00 in - - ()
Sea Level Pressure  
Sea Level Pressure 30.42 in    
Wind  
Wind Speed 3 mph (NNE)    
Max Wind Speed 7 mph    
Max Gust Speed -    
Visibility 10 miles    
Events      
Averages and records for this station are not official NWS values.
T = Trace of Precipitation, MM = Missing Value Source: NWS Daily Summary

Daily Weather History Graph

Daily Weather History Graph

Search for Another Location

Airport or City:

Trip Planner

Search our weather history database for the weather conditions in past years. The results will help you decide how hot, cold, wet, or windy it might be!

Date:

Astronomy

Jan. 18, 2013 Rise Set
Actual Time 7:42 AM EST 5:59 PM EST
Civil Twilight 7:15 AM EST 6:26 PM EST
Nautical Twilight 6:45 AM EST 6:56 PM EST
Astronomical Twilight 6:16 AM EST 7:25 PM EST
Moon 11:46 AM EST (1/18) 12:24 AM EST (1/18)
Length of Visible Light 11h 10m
Length of Day
10h 17m
Waxing Crescent, 47% of the Moon is Illuminated
Jan 18
Waxing Crescent
Jan 18
First Quarter
Jan 26
Full
Feb 3
Last Quarter
Feb 10
New

Hourly Weather History & Observations

Time (EST) Temp. Windchill Dew Point Humidity Pressure Visibility Wind Dir Wind Speed Gust Speed Precip Events Conditions
12:15 AM 39.6 °F 34.7 °F 32.0 °F 74% 30.26 in 10.0 mi North 6.9 mph - N/A   Clear
12:35 AM 39.2 °F 34.2 °F 31.8 °F 75% 30.27 in 10.0 mi North 6.9 mph - N/A   Clear
12:55 AM 39.2 °F 35.9 °F 31.5 °F 74% 30.29 in 10.0 mi NNE 4.6 mph - N/A   Clear
1:15 AM 38.5 °F 35.0 °F 31.1 °F 75% 30.30 in 10.0 mi North 4.6 mph - N/A   Clear
1:35 AM 38.5 °F 34.1 °F 30.9 °F 74% 30.30 in 10.0 mi North 5.8 mph - N/A   Clear
1:55 AM 38.3 °F 33.2 °F 30.7 °F 74% 30.31 in 10.0 mi North 6.9 mph - N/A   Clear
2:15 AM 38.3 °F 35.9 °F 30.6 °F 74% 30.32 in 10.0 mi North 3.5 mph - N/A   Clear
2:35 AM 37.6 °F 33.1 °F 30.6 °F 76% 30.32 in 10.0 mi NNE 5.8 mph - N/A   Clear
2:55 AM 37.4 °F 33.8 °F 30.2 °F 75% 30.32 in 10.0 mi NNE 4.6 mph - N/A   Clear
3:15 AM 36.9 °F 34.3 °F 30.0 °F 76% 30.33 in 10.0 mi NNE 3.5 mph - N/A   Clear
3:35 AM 36.5 °F 33.9 °F 30.0 °F 77% 30.33 in 10.0 mi North 3.5 mph - N/A   Clear
3:55 AM 36.3 °F 33.7 °F 30.0 °F 78% 30.34 in 10.0 mi NNE 3.5 mph - N/A   Clear
4:15 AM 35.6 °F - 30.2 °F 81% 30.34 in 10.0 mi Calm Calm - N/A   Clear
4:35 AM 35.4 °F - 30.0 °F 81% 30.34 in 10.0 mi Calm Calm - N/A   Clear
4:55 AM 35.1 °F 31.0 °F 29.8 °F 81% 30.34 in 10.0 mi NNE 4.6 mph - N/A   Clear
5:15 AM 35.2 °F 31.2 °F 29.3 °F 79% 30.35 in 10.0 mi NNE 4.6 mph - N/A   Clear
5:35 AM 35.1 °F 31.0 °F 28.8 °F 78% 30.36 in 10.0 mi NNE 4.6 mph - N/A   Clear
5:55 AM 34.7 °F 30.6 °F 28.8 °F 79% 30.36 in 10.0 mi North 4.6 mph - N/A   Clear
6:15 AM 34.2 °F 30.0 °F 29.1 °F 82% 30.37 in 10.0 mi North 4.6 mph - N/A   Clear
6:35 AM 33.8 °F 30.8 °F 28.8 °F 82% 30.38 in 10.0 mi North 3.5 mph - N/A   Clear
6:55 AM 33.6 °F - 28.4 °F 81% 30.40 in 10.0 mi Calm Calm - N/A   Clear
7:15 AM 33.6 °F - 28.4 °F 81% 30.41 in 10.0 mi Calm Calm - N/A   Clear
7:35 AM 31.5 °F - 29.1 °F 91% 30.42 in 10.0 mi Calm Calm - N/A   Clear
7:55 AM 30.4 °F - 28.0 °F 91% 30.42 in 10.0 mi Calm Calm - N/A   Clear
8:15 AM 30.6 °F - 29.1 °F 94% 30.44 in 10.0 mi Calm Calm - N/A   Clear
8:35 AM 32.2 °F - 30.6 °F 94% 30.45 in 10.0 mi Calm Calm - N/A   Clear
8:55 AM 35.1 °F - 30.6 °F 84% 30.45 in 10.0 mi Calm Calm - N/A   Clear
9:15 AM 37.0 °F 34.5 °F 29.8 °F 75% 30.47 in 10.0 mi NNE 3.5 mph - N/A   Clear
9:35 AM 38.8 °F - 30.6 °F 72% 30.49 in 10.0 mi Calm Calm - N/A   Clear
9:55 AM 40.5 °F 38.4 °F 30.2 °F 67% 30.50 in 10.0 mi ENE 3.5 mph - N/A   Clear
10:15 AM 41.5 °F 38.6 °F 29.1 °F 61% 30.51 in 10.0 mi NE 4.6 mph - N/A   Clear
10:35 AM 42.3 °F 40.5 °F 29.1 °F 60% 30.51 in 10.0 mi NNE 3.5 mph - N/A   Clear
10:55 AM 44.1 °F 42.5 °F 29.8 °F 57% 30.51 in 10.0 mi NNE 3.5 mph - N/A   Clear
11:15 AM 45.0 °F 42.6 °F 29.7 °F 55% 30.51 in 10.0 mi ENE 4.6 mph - N/A   Clear
11:35 AM 46.2 °F 45.0 °F 30.7 °F 55% 30.50 in 10.0 mi North 3.5 mph - N/A   Clear
11:55 AM 47.3 °F - 30.4 °F 52% 30.50 in 10.0 mi Calm Calm - N/A   Clear
12:15 PM 48.7 °F - 30.2 °F 49% 30.49 in 10.0 mi WNW 4.6 mph - N/A   Clear
12:35 PM 49.1 °F - 30.2 °F 48% 30.47 in 10.0 mi North 3.5 mph - N/A   Clear
12:55 PM 50.9 °F - 30.4 °F 45% 30.46 in 10.0 mi Calm Calm - N/A   Clear
1:15 PM 51.1 °F - 29.1 °F 43% 30.46 in 10.0 mi Calm Calm - N/A   Clear
1:35 PM 52.0 °F - 27.0 °F 38% 30.46 in 10.0 mi North 3.5 mph - N/A   Clear
1:55 PM 53.1 °F - 27.9 °F 38% 30.45 in 10.0 mi NNW 6.9 mph - N/A   Clear
2:15 PM 54.3 °F - 28.8 °F 38% 30.45 in 10.0 mi NW 6.9 mph - N/A   Clear
2:35 PM 53.8 °F - 27.5 °F 36% 30.45 in 10.0 mi Calm Calm - N/A   Clear
2:55 PM 54.1 °F - 26.8 °F 35% 30.45 in 10.0 mi Calm Calm - N/A   Clear
3:15 PM 54.5 °F - 27.0 °F 35% 30.44 in 10.0 mi Calm Calm - N/A   Clear
3:35 PM 55.8 °F - 28.6 °F 35% 30.44 in 10.0 mi East 3.5 mph - N/A   Clear
3:55 PM 55.4 °F - 27.3 °F 34% 30.44 in 10.0 mi Calm Calm - N/A   Clear
4:15 PM 55.6 °F - 27.3 °F 34% 30.43 in 10.0 mi NNE 3.5 mph - N/A   Clear
4:35 PM 55.4 °F - 26.8 °F 33% 30.43 in 10.0 mi NNW 3.5 mph - N/A   Clear
4:55 PM 55.6 °F - 26.6 °F 33% 30.43 in 10.0 mi NE 3.5 mph - N/A   Clear
5:15 PM 55.4 °F - 25.3 °F 31% 30.43 in 10.0 mi East 4.6 mph - N/A   Clear
5:35 PM 54.7 °F - 27.0 °F 34% 30.43 in 10.0 mi Calm Calm - N/A   Clear
5:55 PM 52.5 °F - 28.4 °F 39% 30.44 in 10.0 mi Calm Calm - N/A   Clear
6:15 PM 47.7 °F - 31.3 °F 53% 30.43 in 10.0 mi Calm Calm - N/A   Clear
6:35 PM 45.9 °F - 34.3 °F 64% 30.44 in 10.0 mi Calm Calm - N/A   Clear
6:55 PM 41.5 °F - 33.1 °F 72% 30.44 in 10.0 mi Calm Calm - N/A   Clear
7:15 PM 41.5 °F - 34.2 °F 75% 30.44 in 10.0 mi Calm Calm - N/A   Clear
7:35 PM 41.0 °F - 34.7 °F 78% 30.45 in 10.0 mi Calm Calm - N/A   Clear
7:55 PM 39.0 °F - 34.2 °F 83% 30.45 in 10.0 mi Calm Calm - N/A   Clear
8:15 PM 36.1 °F - 32.0 °F 85% 30.45 in 10.0 mi Calm Calm - N/A   Clear
8:35 PM 36.5 °F - 33.1 °F 87% 30.45 in 10.0 mi Calm Calm - N/A   Clear
8:55 PM 36.1 °F - 32.7 °F 87% 30.45 in 10.0 mi Calm Calm - N/A   Clear
9:15 PM 35.2 °F - 32.2 °F 89% 30.45 in 10.0 mi Calm Calm - N/A   Clear
9:35 PM 34.5 °F - 32.7 °F 93% 30.45 in 10.0 mi Calm Calm - N/A   Clear
9:55 PM 33.4 °F - 32.2 °F 95% 30.45 in 10.0 mi Calm Calm - N/A   Clear
10:15 PM 33.8 °F - 32.0 °F 93% 30.45 in 10.0 mi Calm Calm - N/A   Clear
10:35 PM 32.9 °F - 31.3 °F 94% 30.45 in 10.0 mi Calm Calm - N/A   Clear
10:55 PM 32.9 °F - 32.0 °F 96% 30.45 in 10.0 mi Calm Calm - N/A   Clear
11:15 PM 32.2 °F - 31.3 °F 96% 30.45 in 10.0 mi Calm Calm - N/A   Clear
11:35 PM 32.0 °F - 30.6 °F 94% 30.44 in 10.0 mi Calm Calm - N/A   Clear
11:55 PM 32.0 °F - 31.5 °F 98% 30.44 in 10.0 mi Calm Calm - N/A   Clear